User: anonymous   Login
Location: Zagreb
(45.8000°N, 16.0000°E)
Time: 19:05:27
(UTC+02:00)
Language:

Vanguard 1 - Orbit

View from above orbital plane
View from above orbital plane
View from above satellite
View from above satellite

Ground track
Ground track

The orbit data is extracted from the following two-line orbital elements,

1     5U 58002B   20221.82657690 +.00000097 +00000-0 +98035-4 0  9995
2     5 034.2578 066.9339 1846753 228.0243 114.7790 10.84864117210942
Epoch (UTC): 08 August 2020 19:50:16
Eccentricity: 0.1846753
inclination: 34.2578°
perigee height: 649 km
apogee height: 3833 km
right ascension of ascending node: 66.9339°
argument of perigee: 228.0243°
revolutions per day: 10.84864117
mean anomaly at epoch: 114.7790°
orbit number at epoch: 21094

The dashed part of the orbit path shows where the satellite is in the earth's shadow,  

DLR